TPC5884 KUTA-KHKA

Flight info

Callsign TPC5884
Flight time N/A
Altitude 5500
Route DCT
Aircraft C172/L-VGD/C

Departure

Time 2026-04-19 00:24
Airport Tunica Municipal Airport (KUTA)

Arrival

Time N/A
Airport Blytheville Municipal Airport (KHKA)
Time Latitude Longitude Altitude Speed Heading
2026-04-18 23:50 34.68114 -90.34960 199 ft 0 kts 242°
2026-04-19 00:16 34.68131 -90.34962 204 ft 5 kts 28°
2026-04-19 00:16 34.68169 -90.34945 199 ft 11 kts 353°
2026-04-19 00:16 34.68233 -90.34961 199 ft 7 kts 343°
2026-04-19 00:17 34.68281 -90.34977 201 ft 8 kts 349°
2026-04-19 00:17 34.68321 -90.34901 202 ft 15 kts 70°
2026-04-19 00:17 34.68252 -90.34844 199 ft 13 kts 168°
2026-04-19 00:17 34.68157 -90.34819 203 ft 16 kts 167°
2026-04-19 00:18 34.68035 -90.34785 199 ft 20 kts 169°
2026-04-19 00:18 34.67871 -90.34738 202 ft 29 kts 167°
2026-04-19 00:18 34.67715 -90.34695 200 ft 15 kts 168°
2026-04-19 00:18 34.67638 -90.34674 209 ft 11 kts 171°
2026-04-19 00:19 34.67571 -90.34654 201 ft 9 kts 166°
2026-04-19 00:19 34.67515 -90.34639 199 ft 10 kts 169°
2026-04-19 00:19 34.67439 -90.34618 199 ft 13 kts 167°
2026-04-19 00:19 34.67393 -90.34604 199 ft 0 kts 166°
2026-04-19 00:20 34.67389 -90.34603 199 ft 3 kts 161°
2026-04-19 00:20 34.67375 -90.34596 206 ft 0 kts 157°
2026-04-19 00:21 34.67359 -90.34571 199 ft 1 kts 108°
2026-04-19 00:21 34.67360 -90.34550 201 ft 0 kts 78°
2026-04-19 00:22 34.67360 -90.34549 201 ft 0 kts 75°
2026-04-19 00:22 34.67365 -90.34513 199 ft 5 kts 81°
2026-04-19 00:23 34.67398 -90.34470 205 ft 6 kts 347°
2026-04-19 00:23 34.67400 -90.34471 199 ft 0 kts 347°
2026-04-19 00:23 34.67483 -90.34494 203 ft 36 kts 346°
2026-04-19 00:23 34.67862 -90.34620 244 ft 70 kts 351°
2026-04-19 00:24 34.68380 -90.34780 448 ft 77 kts 352°
2026-04-19 00:24 34.68945 -90.34952 632 ft 83 kts 352°
2026-04-19 00:24 34.69471 -90.35135 906 ft 77 kts 348°
2026-04-19 00:24 34.69954 -90.35326 1144 ft 77 kts 348°
2026-04-19 00:25 34.70464 -90.35515 1367 ft 77 kts 350°
2026-04-19 00:25 34.71015 -90.35453 1523 ft 82 kts 15°
2026-04-19 00:25 34.71556 -90.35280 1783 ft 76 kts 14°
2026-04-19 00:25 34.72058 -90.35098 2038 ft 73 kts 15°
2026-04-19 00:26 34.72517 -90.34931 2301 ft 67 kts 16°
2026-04-19 00:26 34.72976 -90.34780 2488 ft 68 kts 14°
2026-04-19 00:26 34.73446 -90.34684 2673 ft 70 kts
2026-04-19 00:26 34.73902 -90.34628 2893 ft 61 kts